Scottsbluff, NE

3:53 AM MDT on July 22, 2017 (GMT -0600)
Heilig

Weather History for KBFF - January, 1999

Change the Weather History Date:

Friday, January 22, 1999

  Actual Average Record
Temperature  
Mean Temperature 32 °F 28 °F  
Max Temperature 44 °F 41 °F 65 °F (2009)
Min Temperature 19 °F 14 °F -19 °F (1917)
Degree Days  
Heating Degree Days 32 37  
Month to date heating degree days 837  
Since 1 July heating degree days 3609  
Cooling Degree Days 0 0  
Month to date cooling degree days 0  
Year to date cooling degree days 0  
Moisture  
Dew Point 24 °F    
Average Humidity 73    
Maximum Humidity 93    
Minimum Humidity 47    
Precipitation  
Precipitation 0.00 in 0.02 in 0.22 in (1996)
Month to date precipitation 0.29  
Year to date precipitation 0.29  
Snow  
Snow 0.00 in 0.20 in 4.00 in (2003)
Month to date snowfall 3.8  
Since 1 July snowfall 19.8  
Snow Depth -    
Sea Level Pressure  
Sea Level Pressure 30.03 in    
Wind  
Wind Speed 10 mph (NW)    
Max Wind Speed 16 mph    
Max Gust Speed -    
Visibility 10 miles    
Events      
T = Trace of Precipitation, MM = Missing Value Source: NWS Daily Summary

Daily Weather History Graph

Daily Weather History Graph

Search for Another Location

Airport or City:

Trip Planner

Search our weather history database for the weather conditions in past years. The results will help you decide how hot, cold, wet, or windy it might be!

Date:

Astronomy

Jan. 22, 1999 Rise Set
Actual Time 7:15 AM MST 4:56 PM MST
Civil Twilight 6:45 AM MST 5:26 PM MST
Nautical Twilight 6:11 AM MST 6:00 PM MST
Astronomical Twilight 5:38 AM MST 6:34 PM MST
Moon 10:17 AM MST 10:40 PM MST
Length of Visible Light 10h 41m
Length of Day
9h 40m
Waxing Crescent, 28% of the Moon is Illuminated
Jan 22
Waxing Crescent
Jan 24
First Quarter
Jan 31
Full
Feb 8
Last Quarter
Feb 15
New

Hourly Weather History & Observations

Time (MST) Temp. Windchill Dew Point Humidity Pressure Visibility Wind Dir Wind Speed Gust Speed Precip Events Conditions
12:54 AM 30.9 °F 22.2 °F 28.0 °F 89% 29.97 in 10.0 mi North 10.4 mph - N/A   Overcast
1:14 AM 30.2 °F 21.3 °F 28.4 °F 93% 29.94 in 10.0 mi North 10.4 mph - N/A   Overcast
1:54 AM 30.9 °F 23.5 °F 27.0 °F 85% 30.00 in 10.0 mi North 8.1 mph - N/A   Overcast
2:54 AM 30.0 °F 21.7 °F 27.0 °F 88% 30.00 in 10.0 mi NNW 9.2 mph - N/A   Overcast
3:54 AM 30.0 °F 24.1 °F 27.0 °F 88% 30.02 in 10.0 mi NNW 5.8 mph - N/A   Overcast
4:54 AM 30.0 °F 19.5 °F 24.1 °F 79% 30.05 in 10.0 mi NW 13.8 mph - N/A   Overcast
5:54 AM 30.0 °F 21.1 °F 24.1 °F 79% 30.07 in 10.0 mi NNW 10.4 mph - N/A   Overcast
6:54 AM 28.9 °F 21.1 °F 23.0 °F 78% 30.08 in 10.0 mi NW 8.1 mph - N/A   Overcast
7:54 AM 27.0 °F 19.5 °F 23.0 °F 85% 30.10 in 10.0 mi WNW 6.9 mph - N/A   Overcast
8:26 AM 28.4 °F 20.4 °F 23.0 °F 80% 30.03 in 10.0 mi WNW 8.1 mph - N/A   Scattered Clouds
8:54 AM 30.0 °F 21.1 °F 23.0 °F 75% 30.10 in 10.0 mi WNW 10.4 mph - N/A   Partly Cloudy
9:54 AM 32.0 °F 23.0 °F 24.1 °F 73% 30.11 in 10.0 mi WNW 11.5 mph - N/A   Partly Cloudy
10:54 AM 36.0 °F 27.5 °F 26.1 °F 67% 30.09 in 10.0 mi WNW 12.7 mph - N/A   Partly Cloudy
11:54 AM 39.9 °F 32.9 °F 27.0 °F 60% 30.05 in 10.0 mi WNW 11.5 mph - N/A   Partly Cloudy
12:54 PM 42.1 °F 34.9 °F 26.1 °F 53% 30.01 in 10.0 mi WNW 13.8 mph - N/A   Partly Cloudy
1:54 PM 44.1 °F 37.7 °F 25.0 °F 47% 29.98 in 10.0 mi WNW 12.7 mph - N/A   Partly Cloudy
2:54 PM 44.1 °F 37.1 °F 26.1 °F 49% 29.99 in 10.0 mi West 15.0 mph - N/A   Scattered Clouds
3:54 PM 41.0 °F 32.8 °F 24.1 °F 51% 30.00 in 10.0 mi West 16.1 mph - N/A   Scattered Clouds
4:54 PM 37.0 °F 28.5 °F 21.9 °F 54% 30.03 in 10.0 mi West 13.8 mph - N/A   Overcast
5:54 PM 34.0 °F 25.5 °F 21.9 °F 61% 30.04 in 10.0 mi West 11.5 mph - N/A   Mostly Cloudy
6:54 PM 32.0 °F 22.5 °F 21.0 °F 64% 30.04 in 10.0 mi WNW 12.7 mph - N/A   Overcast
7:54 PM 26.1 °F 18.4 °F 19.0 °F 75% 30.06 in 10.0 mi NW 6.9 mph - N/A   Clear
8:54 PM 23.0 °F 15.8 °F 18.0 °F 81% 30.05 in 10.0 mi North 5.8 mph - N/A   Clear
9:54 PM 21.0 °F 12.4 °F 17.1 °F 85% 30.04 in 10.0 mi NW 6.9 mph - N/A   Clear
10:54 PM 19.9 °F 10.1 °F 17.1 °F 89% 30.02 in 10.0 mi NW 8.1 mph - N/A   Clear